FW8649 Weather Reports


time (UTC)temp
C
wind
direction
speed
KPH
gust
KPH
rain 1hr
cm
rain 24hr
cm
rain mn
cm
humidity
%
barometer
mb
20260510204522 28 319 1.6 9.7 0.00 0.00 0.00 45 1015.3
20260510203047 30 158 1.6 8.0 0.00 0.00 0.00 44 1015.6
20260510201518 30 139 3.2 9.7 0.00 0.00 0.00 46 1015.8
20260510200033 30 137 4.8 12.9 0.00 0.00 0.00 45 1015.9
20260510194700 30 174 1.6 6.4 0.00 0.00 0.00 45 1016.0
20260510150059 19 163 1.6 6.4 0.00 0.00 0.00 98 1017.2
20260510144524 18 180 3.2 6.4 0.00 0.00 0.00 99 1017.2
20260510143040 17 149 0.0 8.0 0.00 0.00 0.00 99 1017.3
20260510141559 17 195 1.6 6.4 0.00 0.00 0.00 99 1017.2
20260510140002 17 155 3.2 6.4 0.00 0.00 0.00 99 1017.1
20260510134530 16 171 0.0 4.8 0.00 0.00 0.00 99 1017.2
20260510133048 16 165 4.8 8.0 0.00 0.00 0.00 99 1017.1
20260510131510 15 169 0.0 6.4 0.00 0.00 0.00 99 1017.2
20260510130012 15 196 0.0 0.0 0.00 0.00 0.00 99 1017.2
20260510124552 14 213 0.0 0.0 0.00 0.00 0.00 99 1017.1
20260510123117 13 213 0.0 0.0 0.00 0.00 0.00 99 1017.0
20260510121526 13 213 0.0 0.0 0.00 0.00 0.00 98 1016.6
20260510120031 12 213 0.0 0.0 0.00 0.00 0.00 98 1016.2
20260510114548 12 227 0.0 0.0 0.00 0.00 0.00 97 1016.0
20260510113008 12 227 0.0 0.0 0.00 0.00 0.00 97 1015.6
20260510111537 11 227 0.0 0.0 0.00 0.00 0.00 97 1015.4
20260510110042 12 227 0.0 0.0 0.00 0.00 0.00 96 1015.1
20260510104601 12 227 0.0 0.0 0.00 0.00 0.00 96 1015.0
20260510103028 12 227 0.0 0.0 0.00 0.00 0.00 96 1014.7
20260510101553 12 227 0.0 0.0 0.00 0.00 0.00 96 1014.6
20260510094531 12 227 0.0 0.0 0.00 0.00 0.00 96 1014.3
20260510093041 12 227 0.0 0.0 0.00 0.00 0.00 96 1014.1
20260510091505 12 227 0.0 0.0 0.00 0.00 0.00 96 1014.2
20260510090020 12 227 0.0 0.0 0.00 0.00 0.00 96 1014.2
20260510084536 12 227 0.0 0.0 0.00 0.00 0.00 96 1014.2
20260510083058 13 227 0.0 0.0 0.00 0.00 0.00 95 1014.1
20260510081531 13 227 0.0 0.0 0.00 0.00 0.00 95 1013.8
20260510080034 13 227 0.0 0.0 0.00 0.00 0.00 96 1013.6
20260510074550 13 227 0.0 0.0 0.00 0.00 0.00 95 1013.5
20260510073022 13 227 0.0 0.0 0.00 0.00 0.00 95 1013.5
20260510071541 14 227 0.0 0.0 0.00 0.00 0.00 94 1013.5
20260510070047 14 227 0.0 0.0 0.00 0.00 0.00 94 1013.5
20260510064507 15 227 0.0 0.0 0.00 0.00 0.00 95 1013.7
20260510063036 15 227 0.0 0.0 0.00 0.00 0.00 95 1013.6
20260510061605 15 227 0.0 0.0 0.00 0.00 0.00 95 1013.5
20260510060015 15 227 0.0 0.0 0.00 0.00 0.00 95 1013.6
20260510054542 15 227 0.0 0.0 0.00 0.00 0.00 95 1013.5
20260510053056 15 227 0.0 0.0 0.00 0.00 0.00 95 1013.6
20260510051528 16 227 0.0 0.0 0.00 0.00 0.00 95 1013.8
20260510050021 16 227 0.0 0.0 0.00 0.00 0.00 95 1013.6
20260510044547 16 227 0.0 0.0 0.00 0.00 0.00 95 1013.7
20260510043010 16 227 0.0 0.0 0.00 0.00 0.00 94 1013.7
20260510041533 15 227 0.0 0.0 0.00 0.00 0.00 94 1013.8
20260510040040 15 227 0.0 0.0 0.00 0.00 0.00 93 1013.8
20260510034501 15 229 0.0 0.0 0.00 0.00 0.00 91 1013.9
20260510033033 16 259 0.0 0.0 0.00 0.00 0.00 90 1013.8
20260510031557 16 259 0.0 0.0 0.00 0.00 0.00 90 1013.6
20260510030007 16 259 0.0 0.0 0.00 0.00 0.00 88 1013.6
20260510024530 16 259 0.0 0.0 0.00 0.00 0.00 88 1013.3
20260510023057 17 259 0.0 0.0 0.00 0.00 0.00 87 1013.2
20260510021528 17 258 0.0 0.0 0.00 0.00 0.00 84 1012.8
20260510020026 18 258 0.0 0.0 0.00 0.00 0.00 83 1012.5
20260510014552 18 311 0.0 0.0 0.00 0.00 0.00 82 1012.1
20260510013003 19 311 0.0 0.0 0.00 0.00 0.00 81 1011.8
20260510011531 20 311 0.0 0.0 0.00 0.00 0.00 79 1011.7
20260510010037 21 311 0.0 0.0 0.00 0.00 0.00 75 1011.4
20260510004501 22 311 0.0 0.0 0.00 0.00 0.00 71 1011.2
20260510003035 23 311 0.0 0.0 0.00 0.00 0.00 69 1011.1
20260510001507 23 311 0.0 0.0 0.00 0.00 0.00 66 1010.8
20260510000027 24 311 0.0 0.0 0.00 0.00 0.00 60 1010.8
20260509234549 25 308 0.0 0.0 0.00 0.00 0.00 60 1010.8
20260509233026 25 229 0.0 0.0 0.00 0.00 0.00 62 1010.9
20260509231604 25 229 0.0 0.0 0.00 0.00 0.00 60 1010.8
20260509230007 25 228 0.0 0.0 0.00 0.00 0.00 59 1010.8
20260509224540 25 227 0.0 3.2 0.00 0.00 0.00 58 1010.8
20260509223019 26 223 1.6 9.7 0.00 0.00 0.00 58 1010.7
20260509221545 26 221 3.2 6.4 0.00 0.00 0.00 58 1010.5
20260509220048 26 254 1.6 8.0 0.00 0.00 0.00 57 1010.4
20260509214523 26 218 3.2 8.0 0.00 0.00 0.00 56 1010.2
20260509213052 26 239 1.6 8.0 0.00 0.00 0.00 55 1010.2
20260509211526 26 317 3.2 8.0 0.00 0.00 0.00 53 1010.3
20260509210043 27 304 3.2 12.9 0.00 0.00 0.00 56 1010.4